Temp
18 18 18 18 18 18 19 18 18 18 18 19 19 19 19 19 19 19 19 20 20 20 20 20 20 20 20 20 20 20 20 20 20 19 17 17 18 19 20 20 20 21 21 22 22 21 21 21 21 22 23 22 22 21 21 21 20 20 19 16 15 15 15 15 15 15 16 16 15 13 13 14 13 12 11 10 9 8 8 7 7 7 7 6 6 6 6 6
18 18 18 18 18 18 18 18 18 18 18 19 19 19 19 19 19 20 20 20 20 20 20 21 21 21 21 20 20 20 20 20 19 18 18 18 19 20 20 21 21 21 21 22 22 20 20 21 21 22 22 21 21 21 20 21 20 19 17 16 16 15 15 16 15 15 16 16 15 12 11 12 11 12 11 9 8 8 7 7 7 6 6 6 5 5 5 5
18 18 18 18 18 18 18 18 18 18 19 19 19 19 19 19 20 20 20 20 20 20 20 20 21 21 21 21 20 20 20 20 19 18 18 19 20 20 21 21 21 21 21 22 22 21 20 21 21 21 22 21 20 20 20 20 19 18 17 16 15 16 15 16 16 16 16 16 15 12 10 10 10 11 10 7 7 7 7 7 6 5 5 5 5 5 5 4
18 18 18 18 18 18 18 18 18 19 19 19 19 19 19 20 20 20 20 20 21 21 20 20 20 21 21 21 21 20 20 20 18 18 18 19 20 20 20 21 21 21 22 22 22 22 21 21 21 22 21 20 20 20 19 19 19 18 17 16 15 16 15 16 16 16 16 15 14 12 10 9 8 10 9 8 8 6 6 7 6 5 5 5 5 4 4 4
18 18 18 18 18 18 18 18 18 19 19 19 19 20 20 20 20 19 20 21 21 21 20 20 20 21 21 20 20 20 20 20 18 18 18 19 20 20 20 20 21 21 22 23 22 22 22 20 21 22 20 19 19 19 18 19 19 17 16 16 16 16 16 16 16 16 15 14 14 12 11 9 8 8 7 9 9 6 6 6 6 6 5 5 4 4 4 4
18 18 18 18 18 19 19 19 19 19 19 19 20 20 20 20 19 19 20 21 21 21 20 20 20 21 21 20 20 20 20 19 18 18 18 19 20 20 20 20 20 21 22 22 21 21 21 20 21 21 19 19 18 18 18 18 18 17 16 17 17 16 15 15 15 15 14 14 13 11 10 8 7 7 6 7 7 6 6 5 5 5 5 5 5 4 4 3
18 18 18 18 19 19 19 19 19 19 19 20 20 20 20 20 20 20 20 21 21 21 21 21 21 20 20 20 20 19 18 17 17 17 18 19 19 20 20 20 20 21 21 20 20 19 19 20 20 19 19 18 18 18 17 17 18 17 17 17 16 16 15 15 15 14 14 13 12 11 9 8 7 7 6 6 6 6 6 5 5 5 5 5 4 4 4 3
18 18 18 19 19 19 19 19 19 19 20 20 20 20 20 20 20 20 20 20 20 21 21 21 21 21 21 21 20 18 17 16 17 17 18 19 19 20 20 20 20 21 20 19 18 18 19 19 19 19 18 17 18 18 17 17 17 17 17 17 16 15 15 16 16 15 14 12 10 11 9 7 7 7 6 5 6 6 5 5 5 5 4 4 3 3 3 3
19 19 19 19 19 19 19 19 19 20 20 20 20 20 20 20 20 20 20 20 20 21 21 21 22 21 21 21 20 18 17 17 17 17 18 19 19 20 20 20 20 20 19 19 18 18 18 18 18 19 18 17 18 18 18 18 17 17 17 17 17 16 15 16 16 15 14 12 10 10 7 6 7 7 6 5 6 6 5 5 4 4 4 4 3 3 3 3
19 19 19 19 19 19 19 19 20 20 20 20 20 20 20 21 20 21 21 21 21 20 21 21 22 22 21 20 19 19 18 17 18 18 18 19 19 19 19 20 20 19 19 19 18 18 17 17 18 18 18 18 18 17 17 18 17 17 17 17 17 16 15 16 15 15 14 12 11 9 6 6 7 7 7 6 6 6 5 5 4 4 4 4 3 3 3 3
19 19 19 19 19 19 19 20 20 20 20 20 20 21 21 21 21 21 21 21 21 21 21 21 21 22 20 18 18 18 18 18 18 18 18 18 18 18 19 19 20 19 19 18 18 18 17 18 18 18 18 18 17 17 17 17 17 17 18 17 16 16 16 15 15 15 15 13 11 9 7 7 7 8 7 6 6 6 5 5 4 4 4 4 3 2 3 3
19 19 19 19 19 19 19 19 20 20 20 20 21 21 21 21 21 21 21 21 21 21 21 21 21 21 20 18 17 17 18 18 18 18 18 18 18 18 18 19 19 19 19 18 18 19 19 19 19 18 18 17 17 17 17 16 17 17 17 17 16 16 16 15 15 15 15 13 11 9 9 8 7 7 6 6 6 5 5 5 4 4 4 4 3 2 3 3
18 19 19 19 19 19 19 19 20 20 20 20 20 21 21 21 21 21 21 21 21 21 21 21 21 21 20 18 17 18 18 18 18 18 19 19 18 18 19 19 19 19 19 19 18 19 19 19 18 17 17 17 17 16 16 16 17 17 16 16 15 15 15 15 15 14 14 13 12 11 11 9 7 6 6 6 6 5 5 5 4 4 4 4 4 3 2 3
19 19 19 19 19 19 19 20 20 20 20 20 20 20 21 21 21 21 21 21 21 21 21 21 21 21 19 18 18 19 18 18 18 18 19 19 19 19 19 19 19 19 19 19 19 19 19 18 17 17 16 17 16 16 16 16 16 16 15 15 14 13 14 15 14 14 14 13 13 12 12 10 6 6 6 6 6 5 5 4 4 4 4 4 4 3 3 2
19 19 19 19 19 19 20 20 20 20 20 20 20 20 20 21 21 21 21 21 21 21 21 21 21 20 18 17 18 19 18 19 18 18 18 18 18 18 19 19 19 19 19 19 19 19 18 17 16 16 15 15 15 16 16 15 14 14 14 14 13 12 12 13 14 14 14 13 13 12 11 9 7 6 6 6 6 5 5 4 4 4 4 4 4 4 3 3
19 19 19 20 19 20 20 20 20 20 20 20 20 20 20 21 21 21 21 21 21 21 22 21 21 20 19 18 19 19 18 18 18 18 18 18 18 18 19 19 19 19 19 19 19 19 18 17 15 15 14 14 13 14 16 15 13 13 13 12 12 12 11 12 14 14 13 13 13 12 11 9 7 6 6 6 6 5 5 5 5 5 4 4 4 4 4 4
19 19 19 19 19 20 20 19 19 20 20 20 20 20 20 21 21 21 21 21 21 21 22 21 20 20 19 18 19 18 18 18 18 18 18 19 18 18 18 18 19 20 19 19 18 18 17 16 15 14 13 12 11 13 16 14 12 12 12 12 12 12 11 11 12 13 13 12 12 12 11 9 7 6 6 6 6 5 5 5 5 5 4 4 4 4 4 4
19 19 19 19 19 20 19 19 19 20 20 20 20 20 20 20 21 21 21 21 21 21 22 20 19 20 19 18 18 18 18 18 18 18 19 19 19 19 19 18 18 19 19 18 17 16 16 15 14 13 12 12 11 12 13 13 12 12 11 11 11 11 11 11 11 12 12 12 11 11 10 8 6 6 6 6 6 6 5 5 5 5 5 5 4 4 4 4
19 19 19 19 20 20 20 20 20 20 20 20 21 20 20 20 20 20 19 19 20 20 20 18 18 19 19 18 17 18 18 18 18 17 18 18 19 20 19 19 18 18 18 17 16 15 14 14 13 12 12 11 12 11 11 11 11 11 11 11 11 10 10 10 11 11 11 11 11 11 11 8 6 6 6 6 6 6 5 5 5 5 5 5 4 4 4 4
19 19 19 19 20 20 20 20 20 21 21 21 21 20 21 20 20 19 17 17 17 17 17 17 17 18 18 17 17 18 18 18 18 17 17 18 18 19 19 19 18 18 17 16 15 15 13 13 12 12 12 12 12 12 11 11 11 11 12 11 11 10 9 10 10 11 11 11 11 11 10 8 6 6 6 6 6 6 5 5 5 5 5 5 4 4 4 4
19 19 20 20 20 19 20 20 20 21 21 21 21 20 19 19 20 18 17 17 16 16 17 17 17 17 17 17 17 17 17 18 18 16 17 18 18 18 18 17 17 16 16 15 15 14 13 13 12 13 13 12 12 12 11 11 12 12 12 11 11 9 9 9 10 11 11 10 10 10 9 8 6 6 6 6 6 6 5 5 5 5 5 4 4 4 4 3
19 19 20 20 20 20 20 20 20 21 21 21 20 19 17 17 18 18 17 17 17 17 17 17 17 17 17 17 17 17 16 17 18 16 16 17 18 18 17 15 15 15 15 15 15 14 13 13 13 13 13 12 12 12 12 11 11 12 11 11 10 9 9 9 10 10 10 9 10 10 10 8 6 6 6 6 6 5 5 5 5 5 4 4 4 4 3 3
19 19 20 20 20 20 20 21 21 21 21 21 20 18 17 17 18 18 18 18 17 17 17 17 16 16 17 17 17 17 16 16 16 16 15 16 17 16 16 15 15 14 14 15 15 15 14 13 13 13 13 13 12 12 12 11 11 11 11 10 10 9 9 9 9 10 9 9 9 10 10 7 5 6 6 6 6 5 5 5 5 5 4 4 4 3 3 3
20 20 20 20 20 20 21 21 21 21 21 21 20 18 18 18 18 18 18 18 17 17 16 17 16 16 16 17 17 17 16 15 15 15 15 15 15 15 15 15 15 14 13 14 14 14 14 13 13 13 13 13 12 11 11 11 11 10 10 10 10 10 9 8 9 9 9 10 10 9 9 7 5 5 5 5 5 5 5 4 4 4 4 3 3 3 3 2
20 20 20 20 21 21 21 21 21 21 20 20 20 19 18 19 19 19 19 18 18 17 16 17 16 16 16 17 17 16 16 16 15 15 15 14 14 15 15 15 15 14 13 13 13 13 13 13 13 13 13 13 12 11 10 10 10 10 10 11 10 10 9 9 8 8 8 10 10 10 9 8 6 5 5 4 4 4 4 4 4 4 4 3 3 3 2 1
20 21 20 21 21 21 21 21 20 20 20 20 19 19 19 19 19 19 20 19 19 18 17 17 17 17 16 17 16 16 16 16 15 16 16 14 14 15 15 15 15 14 13 13 13 13 13 13 13 13 12 12 11 11 10 10 10 10 12 11 10 10 9 9 8 8 8 9 10 10 9 8 7 6 5 4 4 4 3 3 4 4 4 3 3 2 1 1
21 21 21 21 21 21 21 21 20 20 20 19 19 19 19 19 19 19 20 20 20 18 18 18 18 17 17 17 15 16 18 17 16 16 15 15 15 14 15 15 14 14 13 13 14 14 13 13 13 12 12 11 11 11 10 10 10 11 12 11 9 9 9 9 8 8 8 9 9 10 9 8 8 7 5 3 4 3 3 3 3 3 3 3 3 2 1 0
21 21 21 21 21 21 21 21 21 20 20 19 19 19 19 19 19 19 20 20 19 18 17 18 18 17 17 17 15 16 17 16 16 17 16 16 15 15 16 15 14 14 12 14 16 14 12 12 12 11 12 12 11 11 10 10 10 11 12 10 9 9 8 8 8 8 8 9 8 9 9 8 8 8 4 3 4 3 3 3 3 3 4 3 2 1 1 0
21 21 21 21 21 21 21 21 21 20 20 20 19 19 19 19 19 19 20 20 18 17 17 17 17 17 16 16 16 15 15 15 16 16 16 15 15 15 15 14 14 14 12 13 15 13 11 11 11 11 11 11 11 11 10 10 10 11 11 10 9 8 8 8 8 8 9 8 9 9 8 7 7 7 5 3 4 4 4 4 4 4 3 3 2 1 1 0
21 21 21 21 21 21 21 21 20 20 20 19 19 19 19 19 19 20 20 19 18 17 16 17 17 16 16 16 16 15 15 15 15 15 15 14 14 14 13 12 13 14 13 12 12 11 10 10 10 11 11 11 11 10 10 10 10 11 10 9 9 8 9 9 9 9 8 8 9 9 8 7 7 7 6 5 5 6 5 4 4 4 3 3 2 1 1 -0
21 21 21 21 21 21 21 20 20 20 19 19 19 18 19 20 20 20 20 18 18 17 16 16 15 15 15 16 16 15 14 15 14 15 15 14 13 12 12 13 13 13 14 13 12 10 10 11 11 11 11 10 10 10 11 10 10 10 9 8 9 10 10 10 9 9 9 10 10 8 7 7 7 8 8 6 5 5 5 5 4 4 3 2 1 1 -0 -1
20 20 21 21 20 20 20 19 19 19 19 19 18 18 19 20 20 20 19 17 18 18 16 15 15 14 14 15 15 13 14 15 14 14 14 13 11 10 11 12 11 14 16 14 13 12 11 10 10 10 10 10 10 11 11 11 10 10 9 8 9 10 10 10 10 9 9 11 10 8 7 7 7 8 9 7 6 5 4 5 4 4 3 2 1 0 -1 -2
19 19 19 20 20 20 19 19 18 18 19 19 18 19 20 20 20 19 18 18 18 16 14 14 14 14 14 15 15 13 13 14 14 14 13 13 11 10 10 9 9 13 15 13 12 13 13 11 9 10 11 10 10 11 11 10 10 10 9 8 9 9 9 10 9 8 9 9 9 8 7 7 7 8 8 7 6 6 5 5 4 3 3 2 1 -0 -1 -2
18 18 19 19 19 18 18 18 18 18 18 18 19 20 20 20 19 17 16 17 15 14 14 14 14 14 14 15 14 13 14 14 13 14 14 13 13 12 11 10 9 11 12 12 11 11 13 13 11 11 11 11 10 10 10 9 9 9 9 9 9 8 9 9 8 8 8 8 7 7 7 8 9 9 8 7 6 5 5 4 3 3 2 1 0 -0 -1 -2
18 18 18 18 18 17 17 17 17 18 18 19 20 20 20 20 19 18 17 16 14 14 14 13 14 15 15 14 13 12 14 14 13 13 14 13 13 12 11 10 9 9 10 12 12 10 12 14 11 10 10 10 10 9 9 9 9 9 9 9 8 8 8 8 8 8 7 6 5 6 8 9 9 8 6 6 5 5 4 3 3 3 2 1 1 0 -1 -2
18 17 18 18 17 17 17 17 18 18 18 19 20 20 19 18 17 17 16 14 14 15 14 14 15 16 16 15 14 13 12 13 13 13 13 12 12 11 10 9 8 8 10 12 11 10 12 13 10 9 10 9 9 9 8 9 10 10 9 9 7 7 7 7 7 6 5 5 6 7 8 8 7 7 5 4 5 5 4 3 3 3 2 1 1 0 -1 -2
18 18 17 17 17 17 17 17 18 18 18 19 21 19 17 15 13 13 12 12 13 13 15 17 16 16 17 17 15 14 13 13 13 14 14 12 12 11 10 9 8 8 9 9 10 10 11 12 10 9 10 9 8 9 8 8 9 9 9 8 7 6 7 6 6 5 5 6 6 6 7 6 6 7 5 4 4 5 5 4 3 3 2 1 1 -0 -1 -2
18 17 17 17 17 17 17 18 18 18 18 19 20 17 14 13 11 10 10 11 12 13 15 18 17 15 17 17 16 14 13 15 14 14 14 13 12 11 10 9 8 8 8 8 10 10 9 12 11 9 10 9 8 9 9 8 8 8 9 8 8 8 8 7 6 6 5 5 6 6 6 6 6 7 7 6 5 6 5 5 3 3 2 1 0 -0 -2 -2
17 18 18 17 17 17 17 18 17 17 19 20 19 17 14 12 10 8 8 9 11 13 16 17 16 15 15 16 16 14 13 15 15 14 15 14 13 11 9 9 8 7 8 8 9 9 9 11 12 10 8 9 8 8 9 9 8 8 8 7 8 8 7 7 6 6 6 5 6 6 6 7 7 8 8 7 7 6 5 4 3 2 1 1 0 -1 -2 -3
17 18 18 17 17 18 17 18 18 19 19 18 17 16 13 11 10 7 7 8 11 13 15 15 15 15 15 14 14 14 13 14 14 14 15 13 13 11 9 9 9 8 7 8 8 9 8 10 12 10 8 9 9 9 9 9 8 8 7 7 7 7 7 6 5 5 5 5 5 5 6 8 9 8 8 8 7 6 5 4 3 2 1 1 -0 -1 -2 -2
17 19 19 17 18 18 17 18 17 17 17 15 14 13 11 11 10 8 7 7 9 11 12 13 14 15 15 14 14 14 14 14 14 14 14 13 13 12 9 7 8 8 8 8 8 8 9 9 9 10 10 11 11 8 7 8 9 9 8 8 8 8 7 6 6 4 4 5 5 5 5 7 9 8 8 7 7 6 5 4 3 2 1 1 0 -1 -2 -2
18 19 18 17 18 18 18 17 14 13 15 14 12 11 11 11 10 9 8 7 9 11 10 12 13 14 14 14 14 13 14 14 14 14 14 13 12 11 8 7 7 8 8 9 8 7 8 8 8 9 10 11 9 7 6 7 8 9 8 7 7 7 7 7 7 5 4 4 4 4 4 6 8 8 8 8 7 6 4 3 3 2 1 1 0 -1 -2 -2
18 18 17 17 17 17 18 17 14 13 13 11 10 10 10 11 10 10 9 9 10 11 11 12 12 13 13 13 13 13 13 14 14 13 13 12 10 8 6 6 7 7 8 8 7 7 7 7 8 9 10 9 7 6 6 6 7 8 8 7 7 7 7 7 6 5 4 4 4 3 3 6 8 8 7 8 6 5 4 4 3 3 2 1 0 -1 -2 -2
17 16 16 17 18 18 18 18 17 14 11 9 10 10 10 10 10 10 10 11 11 11 12 12 11 12 12 12 12 13 13 14 14 12 11 12 10 6 5 6 6 7 8 8 8 7 8 9 9 10 11 10 9 8 8 7 7 8 8 7 7 6 5 4 3 3 3 4 4 4 4 7 9 8 7 7 6 6 5 4 3 3 2 1 0 -0 -2 -3
17 16 16 16 17 17 17 16 17 15 11 10 11 11 11 11 10 10 10 10 10 10 12 12 11 11 11 11 12 12 11 13 14 11 10 11 8 5 5 5 5 6 7 6 6 7 8 9 9 10 12 12 12 12 11 10 9 8 8 7 6 6 5 5 4 3 4 4 3 4 6 9 10 9 7 7 7 6 6 4 3 3 2 1 0 -1 -2 -3
18 18 17 17 16 15 14 13 14 15 12 12 13 12 11 12 10 9 10 10 10 10 11 11 10 11 11 11 12 12 11 11 12 11 11 10 8 5 5 5 5 6 6 5 5 6 7 7 8 10 11 12 12 12 12 11 9 9 8 7 6 5 4 5 5 4 4 4 3 5 6 7 8 8 8 8 8 7 6 5 4 3 2 1 0 -1 -2 -3
18 18 17 17 17 16 15 13 13 14 14 14 15 13 12 12 11 10 10 10 10 9 10 11 10 12 13 12 13 13 11 10 11 11 11 10 7 5 5 5 5 5 5 5 6 6 6 8 8 8 9 10 10 10 10 9 8 8 8 7 6 5 4 4 5 5 6 5 6 8 7 6 7 8 9 8 8 7 6 5 4 3 2 1 0 -1 -2 -3
16 17 14 14 16 17 16 15 14 14 13 13 14 13 12 12 12 12 11 10 9 10 11 11 11 11 12 13 14 13 12 11 11 11 10 9 7 6 5 5 5 5 5 5 5 5 6 8 8 7 7 8 8 8 8 7 7 7 7 6 6 4 3 4 5 5 6 6 7 9 8 7 7 8 8 8 7 6 6 5 4 3 2 1 -0 -1 -1 -2
14 15 12 11 14 15 14 13 14 14 14 14 14 13 13 13 13 12 11 10 10 10 11 13 13 12 12 12 13 13 13 13 14 12 10 9 8 7 7 7 5 4 4 5 5 5 6 8 7 6 7 7 7 7 7 6 6 7 7 7 7 5 4 4 5 5 5 5 6 7 6 6 6 7 7 7 7 5 5 4 3 2 2 1 0 -1 -1 -2
15 16 14 13 13 13 12 13 14 14 14 13 14 14 12 13 13 12 11 11 13 12 10 12 13 12 12 11 12 13 13 13 14 13 10 10 10 9 9 9 7 4 4 5 5 5 6 8 7 6 7 8 8 9 8 7 7 7 7 7 7 6 5 3 3 4 4 4 5 4 4 4 5 6 6 6 6 5 4 4 3 3 2 1 0 -0 -1 -2
15 14 14 16 16 13 13 14 13 14 15 14 15 14 13 13 13 12 11 10 11 12 11 12 13 12 11 11 12 12 11 10 12 11 10 11 11 10 9 9 8 6 4 5 5 5 5 7 7 6 8 9 9 9 8 7 7 7 7 8 8 7 6 5 4 4 4 5 5 4 4 5 7 7 6 6 5 5 4 4 3 3 2 1 1 -0 -1 -2
14 13 13 16 17 13 12 14 13 14 16 14 14 14 13 13 12 12 13 11 8 9 9 10 11 11 11 12 11 10 9 8 9 8 8 8 8 8 8 8 8 8 6 4 5 5 5 6 7 6 8 9 8 7 7 7 9 11 11 11 11 9 8 7 6 5 5 6 6 6 7 8 9 8 7 6 6 5 5 4 4 3 2 1 0 -0 -1 -2
Height
830 829 830 831 831 831 831 831 832 832 832 832 832 833 833 834 834 834 834 834 834 834 833 833 833 833 832 832 832 832 832 831 829 827 828 834 836 834 832 830 828 826 824 823 821 820 819 818 819 818 818 821 822 823 822 822 823 826 839 854 862 866 867 866 867 866 865 866 866 869 869 867 873 875 876 882 884 889 892 893 895 898 899 901 903 903 902 902
830 830 831 832 832 833 832 832 833 833 833 833 833 833 834 834 835 835 835 835 834 834 834 833 832 833 832 832 833 832 832 832 828 828 833 837 835 833 832 829 828 826 823 822 821 820 820 819 819 819 820 824 826 826 825 826 828 834 846 857 862 865 866 863 864 864 862 864 867 873 875 873 875 875 875 884 892 892 893 897 897 899 901 901 901 901 901 901
831 832 833 833 834 834 834 834 834 834 834 833 834 834 835 835 835 835 835 835 834 834 833 832 832 832 832 832 832 831 832 831 829 833 837 836 834 833 831 829 827 826 823 822 820 820 820 819 820 821 823 828 830 828 830 830 833 840 847 859 864 862 863 862 861 861 861 863 865 873 877 878 879 875 877 888 894 894 894 897 898 900 902 901 901 900 900 900
833 834 834 835 835 835 835 834 834 834 834 834 834 835 836 836 836 836 835 834 834 834 833 832 832 832 832 832 831 832 831 832 837 841 840 837 836 834 832 830 828 826 824 822 821 819 819 820 821 822 826 832 833 832 835 834 836 843 848 858 862 859 861 862 860 860 861 863 865 871 876 880 883 877 881 885 887 896 897 895 896 898 900 899 899 899 899 900
835 835 836 836 836 836 836 835 835 835 834 835 835 836 836 837 836 835 834 834 834 834 833 833 832 832 833 831 831 831 831 839 846 844 841 839 837 835 833 831 828 827 824 822 821 819 819 821 822 824 830 836 837 837 840 838 837 847 852 854 856 856 861 861 860 860 861 864 865 869 874 880 884 884 886 882 883 895 897 894 895 896 897 899 899 899 899 900
836 836 836 837 837 837 836 836 836 835 835 836 837 837 837 837 836 835 834 834 834 834 834 834 833 833 833 831 831 830 834 847 850 844 843 840 838 836 834 832 830 828 824 822 822 821 822 823 824 829 835 840 842 843 844 841 839 849 855 853 853 855 860 861 860 862 862 862 865 870 876 881 885 889 891 886 888 895 894 894 895 895 898 898 900 900 900 901
836 837 837 837 837 837 837 837 837 836 837 837 838 838 838 837 836 836 835 834 835 834 834 834 834 834 833 832 832 832 838 849 849 845 844 841 839 837 835 833 831 828 825 824 824 825 827 827 830 834 838 842 844 845 845 844 843 849 854 853 855 857 859 860 859 862 862 863 868 871 876 882 884 887 892 892 893 894 894 895 895 896 898 898 901 901 900 901
837 837 838 838 838 838 838 838 838 837 838 838 839 838 838 838 837 836 835 835 835 835 835 834 834 834 833 833 833 836 844 849 848 846 844 842 840 838 836 834 832 830 828 829 829 829 829 831 834 834 841 846 844 845 846 846 848 851 853 853 854 857 858 857 857 860 861 866 871 871 877 884 884 886 892 895 894 895 895 895 895 896 897 899 900 901 901 901
838 838 838 839 839 839 839 839 838 838 839 839 839 839 838 838 837 837 836 836 836 836 835 833 834 833 833 834 833 839 849 850 848 847 845 842 841 839 838 836 835 833 831 833 832 831 832 834 835 833 840 846 844 846 845 847 852 852 852 853 853 856 858 856 857 859 861 866 870 875 885 888 885 887 893 896 894 895 895 896 897 897 897 898 899 901 901 901
838 838 839 839 839 839 839 839 839 839 840 840 839 839 839 839 838 838 837 837 837 837 836 834 834 832 833 833 833 844 852 850 848 847 845 843 842 841 839 838 838 835 834 835 833 834 834 835 835 833 837 843 845 848 847 848 851 850 850 852 854 856 857 856 857 859 860 864 867 876 888 889 885 885 891 896 894 894 896 897 898 897 898 898 898 900 900 900
839 839 839 840 839 840 840 839 840 840 840 840 840 840 839 839 839 839 838 838 838 838 837 836 834 833 833 833 838 849 852 849 849 847 846 845 843 843 842 841 840 838 837 836 835 836 835 835 834 834 839 843 846 849 850 850 850 849 849 853 856 856 857 856 857 858 858 864 868 874 884 887 884 882 887 892 893 894 895 897 898 898 898 897 898 898 899 899
840 839 839 840 839 840 840 840 840 841 841 840 840 840 840 840 840 840 839 839 839 838 838 836 835 834 832 835 845 852 851 849 849 848 847 845 844 845 844 843 842 840 839 838 838 838 837 836 834 836 842 844 848 851 852 851 850 850 851 855 859 858 858 858 858 859 858 864 868 872 878 882 884 884 887 891 891 894 895 896 897 897 898 897 897 897 897 897
840 839 840 840 840 840 840 841 841 841 841 840 841 840 840 840 840 840 840 840 839 838 838 836 836 833 831 841 852 852 850 850 849 848 847 846 846 846 845 845 843 842 842 840 841 840 839 838 837 840 843 845 850 852 851 851 851 852 855 858 861 863 863 859 860 860 860 863 865 869 871 875 887 889 887 890 890 892 894 895 896 896 897 896 895 895 895 895
839 839 840 841 841 841 841 841 841 842 841 841 841 841 841 841 841 841 840 840 839 839 838 837 837 834 835 848 854 851 851 851 849 848 848 848 847 846 846 845 845 844 844 843 843 843 842 842 839 840 844 848 851 850 852 855 856 858 859 862 868 872 868 861 861 861 860 863 862 865 867 871 886 890 887 889 889 891 893 894 895 895 895 895 894 894 894 893
840 840 841 841 841 841 841 842 842 842 842 842 842 841 841 841 841 841 840 841 840 839 839 837 837 836 842 851 852 851 851 849 849 849 849 849 847 847 847 846 846 845 845 845 845 844 845 843 840 845 852 852 852 854 856 859 862 865 866 869 873 876 873 865 862 861 861 863 860 863 868 874 885 887 886 888 888 890 892 893 893 893 894 894 893 893 892 891
840 841 841 841 841 841 842 842 842 842 842 843 842 842 842 842 842 841 841 841 840 839 838 839 838 837 847 854 852 851 851 850 851 850 850 849 848 848 847 847 846 846 846 847 846 846 846 845 846 855 859 857 862 863 860 865 871 871 873 876 875 874 877 871 862 860 862 862 860 862 868 874 881 884 884 886 887 889 891 891 891 892 892 892 892 891 891 890
841 841 841 841 841 842 842 842 843 843 843 843 843 843 842 842 842 841 841 840 841 840 838 841 840 839 848 854 853 853 853 852 852 850 850 849 848 848 848 847 846 846 847 846 847 847 847 849 855 862 865 867 873 868 862 871 878 877 877 878 875 874 878 875 866 862 862 862 862 863 866 871 877 882 884 884 885 887 889 890 890 890 890 890 890 890 889 889
841 841 842 842 842 843 843 844 844 844 844 844 844 844 843 843 842 841 842 841 840 840 840 842 841 844 854 856 856 856 854 853 852 851 850 849 848 848 848 847 846 846 847 849 850 851 852 856 861 866 871 875 878 877 874 878 882 881 880 878 878 878 879 877 871 865 864 864 864 864 866 874 881 882 882 882 883 885 886 887 888 888 889 888 888 888 887 888
841 842 842 842 843 844 844 845 844 844 845 844 844 843 843 844 843 843 843 842 845 848 851 852 849 853 860 858 857 856 854 854 853 851 850 849 848 847 847 847 847 847 850 855 857 857 858 862 866 870 877 880 880 883 885 884 884 882 880 879 879 881 882 878 871 867 867 866 864 863 864 873 882 882 881 881 881 883 885 886 887 887 887 887 886 886 886 886
842 842 843 843 844 844 845 845 844 844 844 844 844 843 844 845 847 851 850 848 854 859 860 860 857 858 860 859 857 855 854 854 853 852 850 849 848 847 847 848 849 851 855 859 861 862 862 867 876 879 882 883 879 882 885 883 882 878 878 879 879 883 884 878 874 869 868 869 865 863 865 871 879 880 880 880 880 882 884 884 885 885 885 885 885 885 885 885
842 843 843 844 845 845 845 844 844 843 843 843 843 843 845 846 849 856 857 857 860 860 860 861 860 860 859 859 858 856 856 854 852 852 851 850 848 849 852 853 856 859 861 862 863 864 864 872 882 882 880 881 879 881 883 881 877 874 878 880 882 886 883 877 875 870 869 872 867 865 868 872 877 879 879 879 880 881 881 883 884 884 885 884 885 885 884 885
843 843 844 845 845 845 844 844 843 843 843 843 843 844 847 847 848 851 854 860 863 860 861 862 861 861 860 859 859 857 857 856 855 854 853 851 849 853 858 861 864 866 866 864 864 868 872 879 882 879 879 880 880 880 880 882 879 876 878 882 884 888 885 877 873 870 870 873 869 863 864 870 877 878 878 879 879 879 880 881 882 882 884 884 884 884 884 884
844 845 845 845 846 845 844 844 844 844 844 844 844 845 847 848 849 849 851 859 865 863 863 863 862 863 861 860 860 858 858 861 863 860 857 855 855 858 862 865 868 870 870 868 867 870 876 881 880 878 879 879 880 881 881 882 881 879 879 882 884 886 888 883 875 872 871 871 869 864 863 872 880 878 878 879 878 879 880 880 881 881 882 883 882 883 883 882
845 846 846 846 846 845 844 845 845 845 845 845 845 846 848 849 850 851 852 859 865 865 864 864 864 863 862 861 861 860 861 865 867 865 862 860 861 862 864 867 869 873 876 875 875 876 879 881 879 879 879 878 880 883 884 884 883 885 882 881 882 882 886 887 881 877 873 867 865 865 865 871 880 880 878 879 879 879 880 880 881 880 881 882 882 882 881 880
846 846 846 846 846 845 845 845 845 846 846 847 847 848 849 850 851 851 853 861 866 866 865 864 863 863 863 862 861 862 863 866 868 867 864 863 863 863 865 866 868 875 880 879 879 882 883 881 879 880 879 880 882 882 886 886 887 887 881 878 880 880 883 883 882 882 879 869 862 865 866 865 874 880 878 879 881 879 880 881 879 879 880 881 880 879 880 880
846 846 846 845 845 845 846 846 847 847 847 848 848 849 849 850 851 850 853 864 868 867 866 865 864 864 863 862 862 861 864 867 868 866 864 865 864 863 866 868 869 875 879 879 880 881 882 881 880 881 881 882 883 884 887 887 889 886 874 874 879 879 881 881 882 886 882 873 864 866 872 870 868 872 875 879 881 880 880 880 878 878 879 878 879 878 878 879
845 846 846 845 846 846 846 846 847 847 848 848 848 849 850 850 851 849 856 869 871 866 866 864 864 865 864 864 863 862 866 868 866 866 865 865 864 863 866 871 873 875 877 879 878 879 881 881 882 883 883 884 884 886 886 887 890 881 869 874 879 879 880 879 882 886 881 875 869 866 873 874 862 861 873 879 879 880 880 879 878 877 877 876 877 877 877 876
845 846 845 845 846 845 846 846 846 847 847 848 848 849 850 850 850 850 860 874 873 866 866 865 863 864 864 864 863 865 869 869 868 868 865 865 865 864 867 873 875 876 879 877 874 879 883 881 883 885 883 883 884 885 887 888 888 878 871 876 878 879 880 878 882 884 878 878 875 867 869 873 861 860 876 882 879 880 877 876 876 874 874 874 875 875 875 875
845 845 845 846 845 846 846 846 846 847 847 848 849 849 849 849 849 852 864 875 871 867 868 866 864 865 866 866 867 869 870 870 872 870 866 867 866 865 869 874 874 875 879 879 875 879 884 883 885 885 883 884 883 884 886 886 884 878 875 875 875 879 878 877 880 877 878 880 875 869 872 878 869 861 874 882 877 874 871 871 873 871 871 872 873 874 872 873
845 845 845 845 845 846 845 845 846 846 847 848 848 849 849 848 852 862 873 873 868 869 869 866 867 870 870 869 870 873 873 873 874 871 869 870 869 869 873 875 875 876 879 882 882 884 886 886 886 884 884 885 884 883 883 883 883 879 878 878 875 874 871 872 875 875 880 878 869 870 874 881 877 860 863 872 866 863 864 867 869 868 869 870 870 871 871 872
845 845 845 845 845 845 845 845 845 846 847 847 848 849 848 851 858 869 875 871 868 871 870 871 874 874 873 873 874 876 876 875 875 873 872 874 876 877 876 876 878 877 875 878 882 887 888 885 886 886 886 887 885 883 880 881 884 881 883 884 873 868 870 871 872 877 878 864 860 872 874 879 879 855 848 859 860 861 863 863 864 864 866 868 868 869 870 870
844 844 844 844 845 844 844 845 845 846 847 847 849 848 850 861 866 867 870 869 869 871 872 876 878 877 877 877 878 881 880 877 877 876 878 881 888 892 888 888 889 879 873 879 882 882 884 887 890 887 886 888 886 883 880 880 884 883 887 888 876 871 872 868 872 879 872 856 857 870 873 876 871 849 844 854 857 861 861 859 860 862 864 866 866 867 868 867
845 845 844 844 844 844 844 845 845 846 846 848 849 848 855 867 869 869 871 869 870 875 877 878 878 879 880 876 879 884 882 880 879 878 881 884 890 897 897 899 899 886 878 886 888 883 880 885 891 888 885 887 886 885 885 884 886 886 889 888 883 883 879 872 880 884 873 861 859 867 876 875 861 845 846 851 851 855 857 857 858 859 862 864 864 865 864 864
845 845 845 844 844 844 844 845 846 846 847 848 848 852 862 867 869 874 875 872 876 879 879 880 878 879 880 878 881 885 881 880 882 880 880 882 885 891 894 897 898 894 890 891 893 894 886 879 884 886 885 886 887 889 890 890 891 889 889 890 891 896 891 884 889 887 880 876 871 872 871 861 848 842 843 846 849 853 854 856 858 858 861 862 861 862 861 861
846 846 845 845 844 845 845 846 846 847 847 848 851 859 866 864 864 868 870 873 879 879 879 882 880 877 879 881 884 885 882 880 882 882 882 884 887 890 894 898 900 901 897 889 892 900 890 878 883 889 887 888 888 889 891 891 890 888 889 891 895 900 901 898 895 892 895 899 891 877 859 845 844 844 847 851 851 853 855 856 858 857 858 859 858 858 859 858
846 846 845 845 845 846 846 846 847 847 847 849 855 863 865 864 865 868 871 875 876 875 877 880 878 876 876 880 883 884 884 882 882 883 885 889 892 894 897 902 904 904 898 892 895 898 887 878 885 891 889 891 891 889 893 891 885 886 890 894 899 903 904 905 903 902 908 905 888 871 855 849 850 845 849 858 853 851 854 854 855 855 854 856 855 855 857 856
846 846 846 847 846 846 847 847 847 847 847 850 856 864 868 871 875 877 879 880 877 877 875 871 872 874 872 874 879 881 882 883 882 881 884 889 891 893 898 902 905 904 902 900 898 900 896 883 884 890 887 890 894 890 892 894 890 888 890 894 901 903 903 909 908 908 912 902 882 872 865 862 859 849 849 857 853 849 849 849 851 852 852 854 853 853 854 854
846 847 847 847 847 847 847 847 847 847 848 853 859 867 874 876 880 883 884 882 879 877 873 867 870 875 872 869 875 881 881 878 880 880 882 886 888 892 898 900 903 905 905 904 899 902 904 888 880 889 888 889 895 891 888 893 895 891 891 894 897 896 898 905 905 904 910 906 888 876 872 867 860 848 842 846 847 843 843 846 849 850 850 851 850 851 852 851
846 847 848 848 847 847 847 847 848 848 849 856 860 866 874 878 882 886 887 885 881 876 871 869 871 875 874 872 873 879 881 876 877 879 879 881 886 892 898 899 902 906 905 904 901 902 906 893 880 886 892 891 892 892 888 889 894 894 895 898 897 896 900 905 908 909 909 909 899 882 869 855 844 839 835 835 838 838 840 844 846 847 847 848 848 848 849 849
847 848 849 848 847 848 848 847 849 849 853 861 865 868 875 879 884 888 888 886 882 876 872 871 871 871 874 877 877 877 880 878 878 878 878 882 885 890 899 900 900 905 906 904 903 903 904 899 886 885 893 891 885 888 887 885 890 894 896 900 897 898 903 905 910 913 909 910 912 903 878 843 826 830 831 829 831 834 838 840 841 843 844 844 845 844 844 845
847 849 849 848 848 848 848 848 854 858 861 868 872 874 878 879 882 887 889 888 884 879 878 876 873 870 872 875 876 877 878 878 879 878 878 883 884 886 897 902 900 903 904 902 904 903 902 902 897 891 887 879 877 887 890 886 886 886 888 892 890 893 901 904 906 911 914 912 908 910 894 846 819 825 826 826 829 831 835 838 836 838 840 840 840 840 841 841
848 851 850 848 848 848 848 854 865 869 867 870 875 877 879 879 881 884 886 887 884 881 881 879 875 874 874 874 876 878 877 876 878 879 878 882 886 889 897 903 902 901 901 901 905 906 905 907 906 895 880 874 879 889 893 889 886 883 885 889 891 894 897 898 898 902 914 915 905 915 907 851 816 823 824 822 827 829 833 835 833 834 835 835 836 836 838 838
849 851 850 848 849 848 850 858 867 871 874 878 881 880 880 880 881 883 884 884 882 880 880 879 878 877 876 876 877 877 877 876 877 880 881 883 890 898 902 903 902 901 901 901 904 907 906 906 904 891 878 878 887 892 893 891 889 884 884 888 891 892 891 893 899 904 912 910 902 916 906 846 812 822 823 820 827 829 830 830 828 830 831 831 833 833 834 835
850 851 850 849 849 848 851 856 860 869 879 883 881 880 881 880 881 881 881 881 880 880 878 879 881 879 878 879 878 877 879 876 876 882 885 883 891 902 905 903 903 902 901 900 902 904 900 897 898 888 874 871 876 881 884 887 888 883 882 886 887 891 898 902 908 915 912 899 895 905 887 834 810 820 822 822 826 823 824 826 825 826 827 827 829 829 831 832
851 852 852 851 849 849 853 856 857 865 878 881 878 879 879 879 882 882 880 881 882 881 879 879 882 881 881 881 879 881 883 877 876 884 887 887 895 905 905 904 905 903 903 904 906 905 900 896 895 886 876 871 868 866 866 871 879 879 879 886 887 891 898 896 903 914 905 894 898 894 861 818 803 813 818 819 821 818 818 822 823 824 824 824 826 826 828 829
851 853 853 852 852 853 856 861 860 862 871 874 872 875 877 876 880 883 881 880 882 882 880 880 882 881 880 880 878 879 883 882 881 884 885 887 896 905 905 905 906 905 905 908 907 907 907 904 898 889 879 873 867 862 862 868 874 874 876 882 886 892 895 891 899 903 891 889 889 869 848 829 812 809 812 811 812 814 816 818 820 822 822 822 823 824 824 826
851 853 855 854 854 855 857 861 862 860 864 865 863 869 874 875 879 882 881 880 882 882 881 881 882 878 876 877 876 876 881 885 885 884 884 889 898 906 906 905 907 906 907 909 907 908 908 899 895 895 885 875 872 869 870 876 878 873 873 876 881 891 897 895 892 881 873 880 865 836 839 844 821 806 807 805 806 810 812 815 816 817 819 819 820 821 821 822
852 854 858 857 855 856 856 858 861 862 863 864 864 868 872 873 875 875 877 882 883 881 879 878 879 877 874 874 872 874 880 882 881 884 886 889 897 904 905 906 909 907 907 910 908 909 908 896 893 898 889 881 883 880 876 880 880 876 876 876 879 890 895 890 881 872 872 873 849 824 833 840 821 809 807 804 807 810 810 812 813 814 816 817 818 818 818 819
855 855 860 860 857 859 861 860 861 862 862 864 866 868 870 869 870 872 876 880 881 881 879 873 872 874 875 875 872 872 875 872 871 878 885 888 893 898 898 900 906 910 910 909 910 910 906 896 895 899 890 882 882 879 878 883 882 875 871 869 871 880 886 882 873 870 874 869 851 839 842 838 823 813 808 805 808 811 809 810 812 812 813 814 814 815 814 814
852 852 856 859 860 862 864 862 861 861 863 865 863 865 869 867 867 871 875 874 871 875 879 872 869 872 874 875 873 871 872 870 867 874 882 884 886 890 889 888 897 910 911 908 909 910 904 894 894 898 889 875 870 870 872 877 877 870 863 861 864 869 876 881 876 872 875 869 855 853 856 843 820 810 810 809 808 809 809 809 809 809 810 811 811 811 811 811
849 849 851 853 857 863 863 861 863 861 860 862 860 862 866 865 866 869 872 874 872 871 874 871 868 873 876 876 873 871 876 877 873 875 880 880 880 883 885 884 890 901 907 908 906 907 906 899 894 899 889 870 865 868 868 871 874 869 860 854 856 860 862 865 866 866 865 856 850 856 856 833 807 803 808 807 806 808 807 805 806 806 807 808 807 806 807 807
849 849 850 849 854 863 863 861 863 861 858 860 861 862 863 863 867 867 866 873 878 876 877 876 872 873 875 874 874 876 881 882 880 882 884 884 883 885 885 887 888 891 899 906 905 905 908 901 897 901 889 867 867 875 873 870 857 842 836 833 833 843 848 846 847 849 848 844 843 842 829 806 796 801 804 802 801 803 802 802 802 801 802 804 803 803 803 803
Wind_Speed
9 10 9 8 9 10 10 11 10 9 8 7 7 7 7 5 3 3 2 3 3 4 4 1 1 3 4 5 5 7 11 22 30 34 29 22 24 20 17 17 19 21 20 15 12 13 7 3 6 6 3 4 4 4 6 5 4 5 4 5 4 3 2 2 2 1 2 2 5 7 7 8 3 3 7 9 14 13 11 11 11 14 15 17 19 21 22 22
9 9 9 8 8 8 8 8 7 7 8 7 7 7 5 4 2 2 2 4 5 5 4 0 2 4 4 4 2 3 5 14 27 31 27 24 22 17 17 19 20 22 21 17 13 12 7 3 7 7 4 3 4 5 5 4 4 5 4 5 3 3 2 3 3 1 2 2 5 8 7 9 3 3 5 7 8 8 10 8 9 11 11 15 19 21 21 21
8 8 8 8 7 7 7 7 6 5 7 9 8 7 6 5 4 3 4 2 2 3 4 0 3 5 4 4 4 2 2 7 19 21 26 27 21 18 20 21 21 21 21 18 14 12 7 8 10 7 6 4 4 5 6 4 4 4 4 5 2 5 4 3 4 2 3 3 6 7 7 9 6 4 5 8 8 7 8 6 6 9 7 9 13 18 20 19
7 8 8 7 7 7 7 6 5 5 8 10 11 11 11 10 7 4 1 3 3 2 3 2 2 3 4 4 5 3 2 4 9 15 26 26 20 18 19 21 21 20 19 15 11 11 9 10 7 5 6 4 3 4 5 4 3 3 4 6 4 6 5 3 4 3 4 6 6 5 9 9 5 6 3 8 9 6 4 4 7 9 8 8 10 15 18 18
8 8 8 7 7 7 7 7 6 8 11 14 15 15 13 10 10 9 4 1 4 6 5 7 11 9 5 1 6 6 1 5 6 18 25 23 20 18 19 22 20 19 18 15 14 14 7 5 3 6 5 4 4 5 4 4 5 4 4 7 6 6 6 3 4 5 5 7 6 6 8 6 3 6 4 7 8 3 3 5 8 9 9 9 10 14 16 15
8 8 7 7 7 8 9 10 12 15 16 15 14 12 9 8 10 12 9 7 9 10 9 13 17 20 18 13 7 6 5 3 8 20 22 19 20 17 18 20 19 18 19 20 22 21 12 7 7 5 3 4 6 5 3 5 5 5 3 5 6 7 7 2 4 6 6 8 6 5 6 5 7 6 4 7 8 5 6 8 10 11 12 14 13 13 13 12
8 8 7 7 7 9 10 13 16 17 15 14 11 9 8 8 10 12 10 8 8 7 7 9 11 14 15 15 19 17 9 2 10 19 19 17 17 16 18 18 19 20 22 26 25 15 10 10 8 4 5 4 4 4 4 6 7 6 4 4 7 9 7 4 5 6 8 10 6 6 7 5 8 7 3 6 7 6 8 12 14 15 16 16 13 11 11 11
7 7 7 7 7 9 10 10 11 12 11 10 9 8 8 9 11 11 11 10 9 8 5 3 3 6 4 4 11 13 6 4 14 18 16 15 16 16 18 18 20 23 26 27 22 12 7 8 5 3 6 3 2 3 3 6 7 4 4 4 6 7 6 7 7 7 8 8 8 10 9 4 7 8 5 6 6 6 9 12 14 15 15 13 10 9 11 11
7 6 6 7 8 9 9 7 7 7 7 8 8 8 9 10 11 10 11 13 15 15 9 2 3 4 4 2 4 6 4 8 13 15 13 15 17 17 18 19 20 23 24 24 23 17 8 4 3 5 6 2 4 4 4 6 2 0 2 2 5 6 5 6 7 7 7 6 10 12 8 7 9 8 4 5 6 7 9 9 10 11 10 8 8 9 10 10
6 6 6 6 7 8 7 6 5 5 4 5 6 7 9 10 10 11 12 14 16 19 17 12 8 8 9 6 6 6 5 9 13 13 11 13 16 17 18 18 18 22 21 21 23 18 8 2 1 8 8 2 4 4 4 6 1 2 2 3 7 6 4 6 6 5 5 6 11 11 8 9 7 4 3 5 6 7 8 7 6 7 7 6 7 8 10 10
7 7 7 6 7 7 6 6 5 4 3 3 5 6 8 9 10 12 12 12 13 15 15 15 16 21 27 18 9 5 5 9 14 14 10 10 13 15 17 16 18 22 20 19 21 18 15 9 5 6 5 3 4 4 4 3 1 1 3 5 5 4 3 5 5 4 4 5 9 13 10 6 1 1 5 7 7 7 8 7 6 6 6 6 7 8 9 9
7 7 7 6 6 6 6 7 6 5 3 3 4 5 6 6 7 8 8 8 11 13 12 9 4 10 26 21 7 3 7 11 14 14 9 7 11 12 12 16 19 23 21 18 20 20 20 19 15 7 1 3 3 3 2 2 1 2 5 5 2 5 4 2 4 4 5 3 7 12 5 2 2 1 7 8 8 8 8 7 6 6 5 5 6 7 8 8
7 7 6 5 6 6 7 7 7 6 4 4 5 6 7 5 3 3 4 6 9 11 14 13 4 5 15 10 3 7 10 12 14 14 9 5 10 11 11 15 17 21 22 20 22 23 20 19 18 9 3 5 2 1 2 3 4 3 5 4 3 7 4 3 1 2 5 4 7 7 0 4 1 5 7 8 8 8 7 6 6 6 5 5 5 5 6 9
7 7 5 5 5 6 7 8 7 7 6 7 7 9 10 8 6 4 5 6 5 5 8 8 7 12 15 3 2 10 12 12 15 16 11 7 8 9 11 12 12 13 15 19 22 25 23 18 16 9 5 5 1 1 3 4 5 4 4 3 3 4 5 6 2 1 4 2 5 7 1 5 4 6 7 7 8 9 7 6 6 6 5 5 5 5 5 10
7 6 4 5 6 7 8 8 6 6 7 7 6 8 9 9 7 7 8 8 7 4 6 7 7 10 10 2 3 8 12 14 17 16 10 8 7 6 5 6 7 6 7 11 13 16 22 21 16 8 4 4 4 4 3 3 4 4 3 3 3 2 5 9 5 2 5 2 3 8 1 4 4 8 8 8 8 8 7 6 6 6 5 5 5 6 5 8
6 5 5 7 8 8 7 6 6 6 6 5 5 5 4 5 5 6 6 9 10 7 7 10 10 10 6 1 1 6 10 13 15 14 8 7 7 5 4 4 4 3 4 9 7 7 15 16 11 6 4 6 6 4 4 5 4 3 3 2 4 3 4 7 5 3 6 2 4 5 1 3 3 7 8 8 8 8 7 6 7 6 6 6 5 5 4 6
6 6 8 9 10 9 9 11 12 12 11 11 11 9 7 7 2 3 2 6 9 11 12 10 9 10 5 1 1 5 8 10 14 14 8 5 5 5 5 4 4 4 2 12 12 7 9 8 4 3 5 6 5 4 5 4 4 4 3 1 4 4 5 5 6 5 6 5 6 4 0 3 3 7 8 8 8 8 7 6 6 6 5 5 5 5 5 6
7 10 13 15 16 16 16 16 15 15 13 13 14 12 13 15 10 6 5 4 2 6 10 11 9 7 3 3 2 6 9 10 12 15 10 5 3 6 7 5 6 4 1 8 11 7 6 4 3 3 4 5 5 7 5 1 3 4 3 3 4 4 5 6 6 5 6 7 6 5 1 3 3 7 8 7 8 7 7 7 6 6 5 5 5 4 5 6
11 15 19 20 18 15 11 8 7 5 4 4 4 3 4 9 13 16 20 15 5 3 3 6 6 5 1 3 4 8 8 7 10 15 17 11 6 7 8 4 4 1 3 3 6 6 3 3 4 3 5 6 4 6 3 5 6 6 6 3 4 6 5 6 7 4 5 8 6 5 3 5 6 7 7 6 7 7 6 6 5 5 5 5 5 4 5 5
16 20 19 15 10 5 2 4 6 4 2 1 1 3 2 2 6 9 16 16 7 3 3 2 4 4 2 2 7 10 5 4 11 18 23 17 8 7 8 6 4 6 4 2 2 5 3 6 6 3 3 6 4 2 2 5 4 5 3 1 4 6 5 6 7 7 6 6 6 5 3 6 8 7 7 6 6 6 6 6 6 6 5 5 4 5 6 6
18 19 13 6 2 3 6 6 5 3 3 2 0 2 0 1 4 1 3 8 7 7 7 3 4 5 2 2 9 10 1 3 12 21 27 18 5 5 6 6 6 6 4 2 3 4 5 8 4 4 5 6 4 2 5 6 4 1 1 3 4 5 7 8 6 6 5 3 6 3 2 6 7 7 6 6 6 6 7 7 6 6 5 4 4 6 6 5
16 13 7 2 4 6 5 4 4 6 7 5 6 7 4 5 10 8 4 4 6 9 7 4 5 4 2 5 11 9 2 5 11 17 26 19 8 5 4 5 6 4 5 3 3 5 6 5 4 7 5 4 3 5 8 7 4 3 3 3 4 3 6 9 5 6 6 2 5 5 1 5 5 5 5 6 6 5 6 6 5 5 4 4 5 6 6 5
12 7 2 2 4 5 5 6 6 8 8 9 11 11 9 10 13 10 6 6 1 5 4 4 4 4 4 6 11 9 6 6 4 11 21 16 6 4 3 5 6 4 5 6 5 4 5 1 6 6 5 5 4 6 8 7 5 3 2 2 4 3 2 4 5 7 9 4 4 6 4 4 3 3 4 6 4 3 4 4 4 5 5 6 6 5 5 5
7 4 2 2 3 4 5 6 6 8 9 10 13 13 12 11 9 7 4 5 1 2 1 1 1 2 2 3 9 7 5 4 1 7 15 10 2 3 3 3 5 5 4 7 7 6 3 5 4 5 6 5 4 4 6 6 5 4 2 0 5 6 2 5 5 7 9 6 2 3 4 3 3 5 5 4 2 2 3 3 4 4 5 5 5 5 4 5
3 2 1 1 3 3 4 4 5 8 8 8 12 12 11 8 4 3 2 4 2 2 2 1 1 1 1 4 8 1 4 3 1 4 9 7 3 2 1 1 4 4 3 6 7 5 1 5 2 5 6 6 5 3 3 3 5 5 3 3 5 7 6 7 7 7 6 5 3 3 3 5 3 7 7 4 2 4 3 4 6 6 6 4 3 4 4 4
2 1 1 2 2 3 2 2 4 6 4 4 9 10 7 4 1 1 3 4 3 3 1 1 1 2 3 7 8 1 4 3 1 5 7 6 3 2 2 2 2 3 4 3 3 2 1 3 4 4 3 6 5 2 1 3 5 5 4 5 6 6 8 8 7 5 2 4 4 4 2 4 2 5 8 5 5 6 5 5 7 6 6 5 4 4 3 4
1 0 1 2 2 4 2 1 3 3 1 2 8 8 5 3 3 2 4 4 3 1 1 1 0 3 3 6 6 3 3 3 2 6 8 7 5 2 4 3 2 2 1 3 2 1 1 4 6 4 4 5 4 3 3 2 4 5 7 7 7 7 10 9 6 4 3 4 5 3 2 4 4 4 5 6 6 7 7 7 8 6 6 5 4 4 3 4
0 1 2 2 2 3 1 2 4 3 0 3 8 7 4 2 1 2 5 2 2 0 1 2 0 2 2 6 8 5 2 2 2 5 7 10 9 3 4 2 3 1 1 4 0 4 0 2 1 2 4 3 2 3 4 2 2 7 10 9 8 7 9 8 5 5 2 2 5 4 2 3 5 3 1 4 4 7 8 9 8 7 7 6 4 4 4 4
1 1 2 3 2 2 1 2 3 2 1 4 7 5 3 1 1 4 5 1 1 1 0 1 1 3 4 6 7 5 2 2 3 4 7 9 11 6 3 1 3 2 1 4 3 4 1 2 4 3 3 1 4 6 5 4 3 7 8 10 9 6 5 5 4 3 2 2 4 5 3 2 5 4 1 2 4 6 7 7 6 7 7 5 5 4 4 3
1 1 2 2 1 1 1 2 3 2 2 5 6 4 2 2 4 6 2 2 0 1 1 2 1 3 5 5 5 5 5 3 1 3 5 5 10 9 3 0 3 4 2 4 3 2 1 1 1 3 2 3 5 6 5 7 5 5 7 8 9 6 2 0 1 2 3 2 5 5 3 3 3 4 3 3 4 5 5 4 5 7 6 5 5 4 4 3
2 1 2 2 2 2 1 1 3 4 4 5 5 3 1 3 4 5 1 2 1 1 1 2 2 4 6 4 2 4 4 4 4 4 5 4 8 8 4 3 4 4 3 5 4 3 4 3 1 1 1 1 3 5 3 1 2 6 5 4 5 5 3 3 4 4 2 4 5 4 2 3 3 5 4 5 5 6 6 5 7 8 7 6 4 4 4 4
5 3 2 2 2 3 2 2 4 5 5 5 4 2 4 4 3 1 2 2 1 1 0 0 2 2 4 3 2 3 2 3 4 3 2 3 5 5 5 2 0 3 4 3 4 5 3 2 2 3 2 1 2 3 5 5 6 6 4 4 5 4 4 4 4 2 1 5 5 1 6 2 6 7 5 6 7 7 7 7 8 8 7 5 5 5 5 4
9 7 4 2 0 1 2 4 5 5 5 5 2 3 7 4 1 3 1 1 0 1 1 1 1 2 2 3 2 3 1 1 3 3 2 3 4 2 3 2 1 2 1 2 4 5 4 4 2 2 3 1 3 2 3 3 4 5 4 4 3 3 5 5 4 3 3 5 5 5 6 1 6 6 6 8 8 9 8 8 8 7 6 5 6 5 4 3
10 7 5 4 4 3 4 5 5 5 4 3 3 5 5 1 3 1 1 3 2 1 1 1 1 3 3 2 1 2 1 1 2 3 3 3 4 2 3 6 5 3 1 2 2 1 2 5 2 1 2 1 2 3 3 2 2 4 0 4 3 2 2 2 2 3 5 7 7 6 2 3 5 4 7 8 7 8 7 7 6 4 5 5 4 3 2 2
8 7 5 6 6 5 5 4 4 4 3 2 5 6 3 4 3 2 2 4 2 0 1 1 2 3 3 2 2 1 1 1 0 4 4 3 2 1 1 4 4 3 3 2 1 1 1 4 4 2 0 2 1 2 3 3 2 3 1 4 1 2 3 2 4 5 4 7 6 3 2 4 4 4 4 3 3 5 6 6 4 4 5 2 2 2 3 3
5 6 6 6 6 5 3 3 4 2 1 4 6 2 3 4 2 3 2 1 2 3 2 2 3 3 1 2 2 2 0 0 1 3 3 2 2 1 1 1 2 3 4 3 0 1 1 4 4 0 3 1 2 2 1 2 1 2 2 1 2 3 5 2 4 4 1 3 5 3 4 5 3 4 2 1 4 6 6 5 5 5 4 3 4 4 4 4
3 4 5 6 6 3 1 2 3 1 2 6 4 3 3 2 2 3 1 0 2 3 4 2 0 2 2 1 2 3 1 1 1 1 0 0 1 1 2 1 0 1 3 3 1 1 0 4 4 3 1 3 2 2 3 1 2 3 1 2 1 2 3 3 2 4 3 2 5 3 5 7 4 4 3 2 6 8 7 6 5 5 4 4 5 4 4 5
2 2 3 6 6 3 1 2 2 1 4 6 2 2 2 1 2 2 1 0 1 2 4 3 2 2 3 2 2 3 1 0 1 1 1 0 0 2 4 1 1 0 2 3 2 1 2 2 6 1 2 2 2 5 3 3 2 3 2 2 2 2 1 1 1 2 2 4 6 4 5 6 3 4 4 5 7 8 7 5 5 6 6 5 5 5 6 5
2 2 2 6 6 3 1 1 1 3 5 3 1 2 1 1 1 1 1 1 1 2 2 3 2 1 2 3 3 2 1 2 1 1 1 1 1 2 3 2 0 0 2 3 3 1 2 1 4 3 1 1 2 3 1 3 3 3 2 2 1 2 3 1 1 1 1 3 5 5 7 5 5 5 5 7 8 7 5 5 6 7 6 6 5 5 5 5
1 2 1 5 4 3 2 1 2 5 4 2 3 2 1 1 1 1 1 1 1 1 1 3 2 2 2 2 3 2 1 2 2 1 1 1 1 1 2 2 3 2 1 4 3 1 2 2 3 5 3 1 1 1 4 4 2 1 1 1 1 0 1 1 1 2 3 2 1 4 8 8 6 4 6 9 9 5 6 6 7 7 6 6 6 5 5 4
2 2 3 4 2 0 3 4 4 4 4 2 1 1 0 1 1 1 1 0 0 1 1 2 3 3 3 2 2 2 2 2 2 1 1 1 1 0 1 3 4 4 1 4 2 0 0 2 2 4 4 3 3 4 5 6 6 5 3 4 3 2 2 1 3 2 2 3 4 1 7 12 7 3 6 7 6 5 7 7 6 6 6 6 5 5 5 4
4 2 4 4 0 2 4 5 2 2 4 2 1 1 0 2 2 0 1 1 1 1 0 0 1 1 2 2 2 2 2 2 1 1 1 2 2 2 2 3 4 4 4 2 1 2 2 2 1 4 6 5 4 3 2 2 4 4 2 3 4 4 5 3 3 3 1 2 3 3 3 10 5 4 5 5 5 6 7 7 6 5 6 6 5 5 5 5
3 2 3 5 1 1 6 3 3 4 2 1 1 0 1 2 2 0 0 1 0 0 1 1 1 0 1 2 2 2 2 1 2 2 1 2 2 3 2 3 4 3 3 2 1 1 1 2 1 5 6 3 2 2 2 2 3 1 2 3 4 3 4 5 5 3 1 3 3 3 4 9 4 4 5 5 6 6 6 6 6 5 5 5 5 5 5 5
2 2 2 5 3 2 3 2 1 1 1 1 2 1 2 1 2 1 1 1 1 1 1 1 1 0 1 1 3 2 1 1 1 1 2 2 2 2 1 2 2 2 1 2 2 1 1 1 1 3 6 5 3 4 5 3 1 2 3 3 4 5 6 4 3 4 0 6 6 4 6 10 5 4 5 4 5 6 6 5 5 5 5 5 5 5 5 5
2 1 2 4 6 4 2 4 4 4 2 2 2 1 1 1 0 2 2 1 1 2 2 1 1 1 1 2 3 2 1 1 0 0 1 1 1 1 1 1 1 2 1 1 2 2 1 2 2 2 2 4 4 4 5 3 2 3 2 4 4 6 9 5 2 3 2 5 6 6 8 13 10 4 5 7 8 8 8 5 5 5 5 5 5 5 5 5
2 1 2 4 6 5 2 1 5 6 4 4 2 2 3 1 2 1 2 1 1 2 2 1 0 2 2 3 3 1 1 1 1 1 1 2 1 2 1 2 2 2 3 3 2 3 2 2 3 5 5 5 6 8 5 3 3 6 5 5 5 6 8 6 4 3 5 3 4 9 12 16 21 16 12 12 10 9 9 6 5 6 6 6 5 5 5 5
1 1 1 1 3 3 3 3 4 4 3 5 2 2 4 3 1 1 1 0 1 1 2 0 1 2 2 3 3 1 1 1 2 1 2 3 1 2 0 3 2 2 4 3 1 3 3 3 5 7 9 10 9 11 8 5 7 11 10 7 7 8 8 8 7 9 3 3 7 12 9 10 20 20 17 18 15 11 10 9 7 7 6 5 5 5 5 5
1 1 2 1 1 0 1 1 3 5 3 4 2 2 4 3 2 2 1 1 1 0 1 0 2 4 6 5 3 2 2 0 1 2 1 2 2 2 2 0 1 3 4 2 1 3 4 4 5 4 8 11 10 12 12 8 9 10 11 11 8 9 11 13 17 14 5 4 14 16 9 11 19 21 21 20 15 12 13 10 7 6 5 5 5 5 6 6
2 1 1 2 1 3 2 1 4 6 5 4 2 2 5 6 5 4 2 2 2 2 2 2 6 6 7 5 4 4 4 2 1 3 2 2 2 2 1 2 1 2 3 2 1 1 3 3 4 2 7 12 10 13 13 9 7 9 12 13 10 11 15 17 18 15 11 14 20 21 20 20 20 21 22 18 13 12 11 7 5 6 6 6 6 7 7 7
1 2 1 3 3 1 1 2 5 6 2 2 1 2 4 7 7 4 2 4 2 3 3 4 7 6 6 5 5 4 6 5 3 3 4 4 2 3 3 3 3 2 1 3 2 1 1 3 2 2 5 10 8 7 8 6 7 11 15 14 9 10 12 14 15 12 9 14 20 18 18 20 19 17 15 14 11 8 7 6 7 7 7 7 7 8 8 8
2 3 4 4 2 2 2 1 4 5 1 1 2 3 3 6 8 4 1 3 4 4 5 6 6 3 2 3 5 5 6 5 5 4 7 6 3 4 3 3 5 5 4 4 2 1 2 2 3 5 4 7 3 3 8 8 7 11 15 15 11 9 8 9 10 8 9 13 15 11 9 14 15 9 7 9 8 7 8 9 8 8 7 7 8 9 9 9
3 2 2 5 2 1 1 1 2 3 2 3 3 3 3 5 7 6 2 1 1 2 3 5 5 4 3 2 6 6 4 5 6 4 5 4 3 3 3 3 6 7 6 5 2 2 4 2 1 3 2 6 4 7 11 10 6 6 8 9 9 8 8 7 8 10 12 11 8 7 10 14 12 8 9 12 11 10 11 9 8 8 7 7 9 10 9 9
Wind_Direction
76 84 89 83 74 72 75 76 74 78 91 117 143 149 149 148 129 101 75 37 48 44 45 69 155 160 147 124 93 92 59 40 41 36 31 9 353 357 1 4 6 1 1 360 6 6 345 268 284 308 329 342 28 356 351 6 14 48 74 72 94 90 62 112 86 48 108 346 11 45 55 78 89 87 111 84 65 80 82 73 77 74 73 74 72 66 60 57
79 90 93 85 77 74 77 77 76 74 81 102 125 140 149 151 138 81 88 79 85 62 41 209 174 185 184 161 174 101 73 30 34 30 15 3 4 9 13 16 13 3 358 357 354 349 342 322 335 3 50 36 12 4 6 6 29 57 94 78 101 132 109 125 120 93 60 29 53 64 69 66 0 303 88 76 67 83 88 84 83 79 72 72 70 68 65 62
89 101 97 89 86 77 76 75 73 71 75 92 109 125 122 110 96 87 116 86 17 10 24 142 194 206 207 193 219 256 252 7 31 19 358 4 11 13 18 17 15 8 358 353 341 329 309 296 325 12 68 50 16 30 30 14 36 53 91 81 117 143 119 110 110 86 58 65 68 69 76 62 8 344 89 102 89 72 84 103 103 96 95 88 81 79 75 71
109 112 104 94 92 83 79 70 66 75 80 92 101 108 102 87 76 72 160 293 323 36 57 84 114 177 205 221 239 262 271 28 30 355 353 5 10 14 20 15 16 16 10 8 354 336 302 288 320 48 76 43 8 44 35 15 55 47 79 102 156 145 102 78 73 46 69 71 65 89 90 78 32 18 85 128 94 60 81 118 126 123 124 115 104 96 89 84
122 115 107 96 96 90 81 70 74 92 93 99 104 104 97 74 57 52 58 55 81 95 86 84 88 89 78 334 237 234 43 52 347 344 355 6 10 13 20 20 21 24 33 43 34 27 2 303 32 66 69 44 12 32 23 18 83 71 68 107 136 124 99 90 49 43 73 71 59 86 93 107 110 34 39 116 109 142 148 121 124 123 125 119 114 107 100 96
127 115 107 98 99 95 86 84 87 93 95 100 104 100 90 67 52 51 64 97 108 104 95 91 91 87 76 66 97 125 92 95 322 343 353 4 11 14 24 27 28 36 52 54 41 42 41 32 57 60 61 64 48 52 22 13 72 93 74 96 108 103 108 109 52 66 72 62 63 95 107 116 105 66 29 86 109 151 141 120 113 108 113 112 110 107 102 102
126 118 109 101 103 103 100 99 91 88 89 93 96 89 78 66 52 49 61 93 116 113 101 97 98 98 86 68 72 77 86 100 334 344 350 6 15 21 34 34 36 48 55 45 35 36 36 38 56 82 75 65 58 61 48 33 49 93 121 118 112 107 112 105 85 93 74 68 84 104 104 107 110 107 64 89 113 134 124 117 111 108 109 105 103 103 104 107
129 123 112 106 111 114 113 111 95 82 83 87 89 80 70 58 51 53 62 77 84 77 85 111 138 146 141 74 69 67 65 341 343 348 353 14 25 30 41 39 39 51 52 42 33 27 30 41 45 93 82 74 96 53 40 52 36 70 131 146 126 112 113 104 81 82 76 81 93 82 81 101 118 117 109 122 133 133 122 115 110 108 104 102 104 108 108 104
134 127 114 115 121 123 120 115 97 83 85 87 82 70 59 48 51 65 73 78 75 68 72 111 190 186 161 145 100 69 10 337 348 352 359 18 28 37 46 40 40 51 52 42 35 32 35 32 24 100 113 119 87 43 24 74 42 318 118 136 127 118 118 103 73 80 85 89 97 86 90 122 123 110 98 145 147 129 119 112 113 110 107 112 117 118 112 102
140 133 120 123 125 126 124 111 101 96 95 84 71 60 52 47 63 83 85 84 80 72 70 78 102 118 104 93 86 72 335 343 4 0 6 17 25 37 45 43 45 52 52 39 31 28 26 13 115 107 105 98 79 62 45 83 155 219 102 84 109 123 126 102 81 90 88 81 106 114 135 154 157 122 117 176 158 130 123 122 121 117 126 135 130 128 119 113
151 139 124 127 127 129 126 113 113 121 118 76 55 51 53 61 80 92 91 89 88 80 74 78 85 84 78 71 74 77 345 4 14 7 11 17 25 33 39 49 54 54 52 37 26 27 34 47 112 109 80 77 80 67 53 70 152 177 103 76 86 89 70 86 74 83 85 67 114 128 143 171 247 69 156 173 156 139 134 138 137 133 148 145 140 138 128 130
158 133 121 129 129 132 126 122 128 127 121 65 47 49 62 80 92 92 84 85 89 80 76 77 73 69 67 61 62 62 19 24 16 12 16 23 40 41 49 65 63 58 56 42 31 37 44 49 68 77 77 114 92 60 46 353 10 94 88 83 31 27 41 73 54 83 98 82 126 124 128 256 339 138 164 157 149 145 140 149 154 155 166 155 150 148 147 164
141 116 122 135 131 134 128 127 125 114 104 77 69 67 71 81 91 95 67 85 102 83 72 67 46 77 72 58 40 46 34 31 23 23 35 57 56 55 74 81 72 64 62 59 52 51 49 48 62 74 70 96 108 117 108 19 32 35 53 75 15 15 345 280 13 86 98 116 138 116 21 283 234 179 170 156 151 144 147 163 168 170 174 167 164 163 174 188
121 116 132 136 134 136 131 129 119 109 99 88 85 79 79 76 76 96 75 74 96 84 75 57 37 71 78 98 93 45 27 32 31 26 38 72 70 65 78 78 73 71 68 72 70 60 54 53 66 73 46 67 85 61 91 40 35 14 6 33 49 40 303 298 305 38 49 133 131 98 249 258 212 189 174 166 157 149 164 176 178 181 181 183 182 182 197 204
118 123 137 134 138 137 133 132 121 111 105 96 87 83 82 72 72 92 78 63 57 64 92 65 50 77 76 98 102 31 13 26 28 21 30 59 58 50 54 47 49 62 64 75 84 65 53 52 59 57 358 8 37 48 50 21 26 30 27 336 353 44 306 308 296 60 49 283 87 81 244 254 203 195 179 170 164 158 171 182 184 187 191 196 197 200 216 224
118 124 135 134 135 137 141 136 121 112 109 102 81 77 75 45 67 99 79 64 57 65 90 68 76 97 87 67 29 7 10 18 16 16 27 47 43 22 339 312 345 358 36 57 82 76 50 51 62 59 11 18 35 56 51 23 354 6 73 236 292 350 329 315 307 29 61 342 359 54 234 250 203 192 181 177 174 163 168 185 190 192 199 202 208 214 226 246
116 122 128 126 126 126 123 113 106 103 99 99 89 80 74 51 67 176 109 73 67 75 83 58 65 88 72 51 17 336 350 358 5 15 17 18 29 9 335 283 285 297 41 46 42 45 39 44 68 55 39 37 29 49 59 22 330 321 28 340 282 325 327 312 304 326 32 23 340 359 226 242 206 176 180 187 174 162 170 187 194 196 208 211 213 223 240 256
123 124 121 118 116 112 109 103 98 96 95 97 92 83 76 62 65 92 76 94 104 78 73 32 34 78 39 10 348 313 331 346 1 14 14 2 348 342 333 279 263 284 24 35 24 26 28 34 80 78 42 31 25 53 68 293 273 269 300 313 299 326 314 289 290 307 16 12 330 338 340 227 191 169 186 195 172 162 178 187 194 200 211 219 219 231 249 262
131 128 123 119 115 109 106 95 75 79 83 92 90 54 52 52 59 61 54 61 68 60 64 348 10 96 69 336 325 322 334 353 8 14 15 6 337 341 349 308 268 26 76 34 4 14 37 54 63 53 17 1 9 65 80 246 234 239 253 254 301 322 295 273 287 295 5 359 307 289 270 206 185 187 193 194 174 165 182 187 191 205 214 221 227 240 255 271
138 133 128 120 114 102 44 5 358 351 354 323 294 345 356 33 42 33 34 49 59 74 110 336 13 77 58 318 336 344 340 18 27 16 10 2 341 356 12 3 15 49 61 113 29 353 39 68 43 3 316 310 304 47 11 285 252 240 246 26 327 318 297 282 293 301 359 3 279 272 255 194 186 194 193 188 176 171 183 188 197 211 219 227 238 259 268 271
145 139 128 104 66 349 339 344 358 35 61 46 353 33 111 120 83 140 3 43 31 40 83 77 57 77 61 357 356 359 318 24 22 12 7 6 6 17 6 9 39 32 353 133 107 352 40 68 22 300 289 300 299 9 16 356 335 289 113 47 344 316 297 294 291 299 356 8 279 284 152 200 201 194 191 183 182 190 191 191 206 216 223 238 252 268 275 279
152 146 127 40 327 335 359 39 77 101 94 83 92 87 108 122 115 136 137 79 16 22 57 52 48 54 19 29 12 9 78 31 11 2 3 9 28 41 7 28 62 41 345 33 65 14 41 56 304 291 322 358 28 34 25 17 11 29 84 55 341 308 299 303 299 307 340 0 284 293 254 236 222 192 195 195 194 207 193 183 195 203 220 254 261 268 283 303
154 159 172 313 331 356 54 80 86 100 100 101 103 100 109 116 121 127 102 101 14 354 27 22 36 21 357 27 19 23 60 41 2 342 356 6 27 48 52 54 61 47 18 41 69 63 58 314 279 301 346 28 38 28 28 21 15 20 47 31 318 312 341 307 304 320 319 291 258 286 283 262 243 208 224 218 196 190 179 171 187 196 215 245 254 258 281 309
158 183 227 311 2 32 69 72 79 94 97 105 106 111 123 124 129 136 104 91 82 299 310 295 100 45 5 10 8 30 70 49 52 334 352 11 32 28 66 104 70 50 54 71 82 90 114 242 281 352 6 39 49 18 33 33 358 323 259 283 310 312 289 254 281 324 321 305 289 317 306 281 227 208 231 238 196 186 186 191 229 239 236 245 263 271 290 313
169 197 213 17 27 41 57 64 96 106 100 105 113 120 128 131 149 159 114 70 29 291 301 268 185 38 340 353 350 42 110 53 76 343 353 28 36 14 58 151 84 84 135 101 85 91 161 248 328 23 6 37 62 13 25 59 357 322 249 238 291 304 288 281 307 340 345 322 329 32 345 296 226 207 229 235 217 226 221 219 236 257 260 255 281 288 300 317
160 172 57 37 34 16 13 62 118 121 102 112 132 137 133 124 104 99 99 65 355 289 339 235 196 355 332 349 339 180 87 5 281 9 17 30 16 100 70 342 56 107 175 141 88 111 330 331 30 50 29 38 50 9 335 80 27 329 272 272 295 309 302 301 315 335 358 286 299 67 65 285 266 228 231 205 209 236 237 232 237 252 260 249 264 287 304 322
156 16 16 11 12 359 342 161 166 156 99 171 158 148 137 112 80 70 75 47 330 260 51 265 238 17 333 350 359 125 86 308 281 12 20 23 353 99 77 9 43 41 196 103 33 279 302 17 19 25 49 46 31 346 284 88 59 290 282 301 305 309 302 297 299 275 238 273 306 46 113 270 286 263 226 176 198 244 244 241 245 246 247 246 261 280 297 321
50 326 350 350 349 336 340 134 176 187 340 191 174 161 143 115 81 72 83 67 300 57 43 285 340 18 341 16 35 102 168 310 73 341 352 31 17 42 83 65 142 207 311 104 37 274 179 73 332 9 41 38 349 275 251 138 106 266 280 298 296 286 278 278 272 253 260 329 309 323 6 288 274 286 47 138 201 253 248 235 237 241 243 248 257 268 287 315
14 313 327 341 344 311 226 160 204 232 255 176 167 173 177 140 64 64 78 147 299 45 26 320 18 333 348 22 25 52 32 22 109 294 324 30 21 31 96 131 133 130 355 103 164 234 171 180 197 135 70 325 274 264 232 171 209 271 295 305 300 284 257 249 229 237 14 22 267 278 10 354 283 279 70 141 230 251 245 232 230 237 243 243 244 261 288 307
5 313 323 328 310 226 195 215 237 223 178 163 164 181 181 114 71 64 47 243 50 7 272 33 15 331 20 40 359 6 32 9 326 331 345 26 16 23 88 273 66 97 24 45 87 223 279 306 203 117 136 227 277 286 233 189 216 313 333 313 309 318 332 51 184 106 67 313 251 215 124 65 306 277 205 196 217 207 206 231 244 246 250 249 247 263 274 267
26 354 325 310 260 241 245 233 214 188 159 156 170 177 110 43 60 90 211 255 64 301 342 17 338 4 36 77 0 346 20 346 331 22 15 13 12 10 26 9 26 60 18 7 16 328 340 359 321 294 214 226 341 321 290 208 31 8 341 316 333 339 4 23 1 47 86 275 247 199 83 76 242 264 240 225 222 191 184 215 243 248 247 246 250 256 246 235
42 32 2 323 257 249 250 201 180 169 157 158 170 125 78 41 13 160 242 326 17 277 103 1 297 24 33 66 41 330 351 342 348 58 52 39 40 19 36 55 240 33 7 329 345 338 324 296 280 305 319 10 26 344 337 357 24 13 341 359 14 352 7 9 343 11 225 248 231 262 14 26 230 251 236 224 224 213 206 211 228 234 227 236 252 246 230 220
43 34 20 14 169 208 178 167 167 156 156 162 146 51 75 81 268 224 254 335 277 268 117 113 20 81 63 44 6 308 0 341 347 44 91 92 75 41 28 36 97 66 332 287 354 352 328 306 327 359 320 354 84 67 344 332 353 351 347 34 49 28 10 342 316 329 288 262 271 321 0 292 267 274 218 212 218 215 213 213 222 216 199 224 239 226 216 217
44 39 39 62 85 114 126 138 150 142 148 150 82 51 71 146 237 199 248 249 231 340 64 115 52 55 59 73 241 268 69 298 325 34 35 59 59 20 341 351 16 61 87 54 23 34 2 317 283 158 286 0 91 151 174 204 297 303 273 99 94 108 64 306 280 303 296 292 298 315 320 217 276 278 207 207 214 211 216 220 220 203 195 221 232 211 217 240
48 46 54 66 72 86 104 126 138 132 143 102 63 66 117 218 233 172 216 235 207 2 356 36 76 66 16 344 275 265 137 246 338 48 31 57 86 60 354 331 349 47 90 73 331 144 44 279 239 196 335 89 88 227 155 124 285 278 116 87 54 189 149 176 232 233 269 302 298 281 221 215 242 262 225 206 222 225 241 238 216 222 233 266 290 242 241 243
46 41 47 47 49 64 83 125 135 126 116 78 67 92 192 225 220 173 198 189 156 162 133 39 71 105 281 300 319 319 335 232 84 55 24 71 134 141 125 253 323 55 102 118 43 30 355 281 241 140 11 70 198 246 81 87 271 339 46 79 244 180 132 129 277 284 14 308 282 276 283 290 317 302 282 320 272 260 264 251 222 235 260 305 292 254 232 236
54 40 39 28 26 41 72 140 143 122 56 81 94 197 211 220 191 173 202 199 163 137 118 126 167 152 207 235 273 287 319 347 31 67 23 37 106 132 129 201 275 104 144 141 151 180 117 296 263 188 248 272 207 93 51 70 122 81 67 216 191 84 87 106 300 332 32 275 271 270 281 297 327 310 280 274 271 265 262 251 236 249 264 272 271 252 229 234
87 62 37 19 15 17 53 125 150 89 65 76 91 229 192 186 194 161 155 177 144 89 105 164 203 173 189 181 222 254 234 194 346 68 141 207 295 139 137 162 10 177 202 132 82 184 119 317 290 214 151 267 12 56 15 328 74 106 161 173 98 74 348 13 352 334 355 309 293 279 278 281 246 243 252 242 253 264 262 248 243 252 250 253 258 239 230 234
83 63 15 1 10 23 45 172 166 62 68 85 194 229 171 192 260 161 164 174 129 99 131 200 194 119 189 172 178 223 197 169 168 101 132 180 230 131 135 169 118 227 212 116 121 213 103 115 284 323 89 213 21 62 232 290 348 32 40 22 59 140 171 188 175 185 215 300 301 304 310 291 226 211 225 248 262 263 250 239 239 241 235 240 244 227 222 224
78 72 333 345 30 60 33 34 46 55 72 143 195 192 152 205 254 263 201 207 194 159 183 213 171 128 198 193 175 184 138 145 151 136 150 160 154 123 138 155 146 160 14 58 99 179 52 132 247 303 327 286 300 208 187 191 191 66 69 230 271 53 119 197 218 174 150 166 238 305 308 288 254 206 214 253 266 238 219 230 235 232 230 235 229 215 215 219
72 82 310 340 57 65 17 47 44 61 101 116 143 153 179 173 165 290 255 256 212 207 192 188 175 164 169 171 185 186 128 129 140 126 195 180 107 167 195 158 151 161 109 49 63 140 79 169 222 293 305 272 238 208 191 191 178 162 174 191 184 140 103 18 296 273 122 155 182 214 295 283 270 196 208 237 238 212 214 227 233 231 231 235 228 212 210 212
76 110 306 341 273 281 35 61 16 45 107 123 137 161 139 125 116 218 267 23 39 226 345 123 191 149 133 160 192 164 114 126 167 137 191 188 161 195 194 144 140 142 125 112 226 214 149 122 188 264 271 261 234 202 187 195 159 143 165 171 147 135 130 147 250 254 180 214 191 134 269 274 253 176 201 212 202 211 212 209 225 237 230 230 229 215 208 212
102 176 322 14 7 348 58 69 337 20 68 246 261 340 20 101 113 167 283 23 50 227 18 347 267 65 149 178 152 138 127 136 173 169 167 166 189 223 193 126 120 109 105 128 203 250 111 98 186 267 279 288 286 300 328 30 73 104 230 168 151 153 146 157 179 174 182 234 196 136 249 268 257 190 203 193 190 217 221 209 225 242 238 236 230 219 211 214
130 192 345 29 18 15 75 157 226 59 267 303 42 352 316 73 113 134 180 202 179 126 96 236 263 234 217 115 99 140 171 111 108 155 159 159 186 247 230 125 122 110 131 178 174 185 241 171 129 321 323 333 346 331 325 345 100 227 236 184 159 123 106 112 123 94 318 228 181 156 246 264 260 174 187 217 233 252 254 225 222 238 248 247 236 226 215 211
86 22 318 6 21 49 123 182 151 141 187 131 94 229 245 28 227 169 160 180 196 157 148 223 248 114 84 49 65 61 49 80 212 2 88 145 197 293 289 238 139 124 159 189 139 122 186 199 138 82 344 317 311 303 309 311 244 233 186 169 172 137 135 147 118 100 253 225 167 171 245 274 285 247 224 256 262 272 276 247 230 244 247 242 238 230 217 213
95 5 303 334 10 51 74 120 111 123 164 146 132 216 153 122 284 217 124 134 198 137 120 218 151 88 59 58 73 42 0 34 55 123 169 198 240 286 216 151 116 134 146 136 112 101 85 259 214 187 202 228 248 257 282 341 294 277 265 209 192 177 166 145 113 178 210 186 205 227 239 274 289 287 286 288 282 284 290 279 256 250 243 241 238 226 219 217
124 200 182 303 340 32 21 10 90 113 167 152 141 197 161 155 287 330 41 254 192 113 80 112 150 140 164 144 124 199 213 65 57 153 191 179 159 337 112 132 113 160 149 136 126 108 83 290 246 213 227 241 251 264 281 312 283 274 274 249 200 181 171 164 196 219 172 82 271 252 220 251 280 289 295 296 297 300 299 290 269 252 243 241 231 223 229 230
123 193 148 124 241 194 13 328 126 110 117 125 105 148 155 160 188 189 233 334 343 142 113 189 235 206 194 178 149 163 178 87 253 215 173 140 128 33 3 189 194 177 142 88 0 117 119 263 247 206 248 260 260 269 275 273 266 264 266 258 225 187 182 197 222 229 191 213 260 267 263 264 277 287 288 290 297 299 295 286 266 247 237 230 228 234 243 246
85 89 1 27 146 191 225 267 118 109 111 108 88 162 167 176 204 213 180 82 345 284 178 213 252 226 206 196 138 146 184 184 243 232 175 152 166 136 150 258 220 167 129 112 262 143 132 247 250 210 279 277 262 261 265 261 265 269 262 254 233 204 200 210 230 234 221 236 254 269 279 277 274 277 281 287 292 288 286 281 257 248 242 233 238 249 254 254
126 160 188 51 54 173 299 11 98 108 108 95 108 223 183 176 197 217 165 134 172 253 193 210 240 220 199 190 145 170 212 179 161 215 172 145 193 191 187 204 158 133 153 164 222 276 165 257 267 85 315 292 266 257 265 253 253 270 274 268 246 223 217 224 239 241 233 248 257 266 277 277 272 269 273 280 283 281 278 267 257 256 247 240 248 254 256 257
162 161 152 108 60 326 329 30 103 110 123 242 196 217 209 197 195 184 153 163 169 186 189 198 209 174 132 188 191 222 237 178 155 194 175 157 187 196 190 187 142 139 188 191 176 179 182 266 340 53 349 290 283 336 309 290 270 269 277 274 255 231 220 222 229 218 208 236 259 273 274 270 272 271 265 269 272 272 268 263 262 261 246 240 253 258 255 251
146 136 133 107 82 289 189 115 81 110 207 238 197 185 216 228 199 158 136 285 112 134 188 186 169 121 93 221 227 230 218 170 155 169 168 145 117 123 135 151 140 141 168 176 163 168 157 163 8 53 316 276 321 345 315 310 321 295 267 246 227 221 226 236 239 221 208 218 248 261 254 264 282 296 290 286 283 275 269 262 260 262 250 238 246 252 252 248